STAR ONE D1 (41904 NORAD) Tracking and Keplerian Element Data

This shows tracking and keplerian element data for the satellite.

Feedback or suggestion? Click here.




ElementValue
Catalog41904
NameSTAR ONE D1
Epoch Orbit2737
Epoch Day160.21470336
Epoch Year2024
RAAN4.8096
Inclination0.0027
Eccentricity0.0002276
Argument of Perigee62.8504
Mean Anonmoly182.7273
Mean Motion1.00271525
Decay Rate-2.12E-06
L11 41904U 16082B 24160.21470336 -.00000212 00000+0 00000+0 0 9998
L22 41904 0.0027 4.8096 0002276 62.8504 182.7273 1.00271525 27370



Live tracking and technical data element details for STAR ONE D1 (NORAD 41904). STAR ONE D1 can be tracked NOW for your location showing map with azimuth and elevation plus other details from your city location.







IsCatalogInMostPopularTable: catalog: 41904, numindb: 708
Update: records affected: 1



GetName: 41904 STAR ONE D1

Hit Count: updated at: Mon, 17 Jun 2024 23:29:28 GMT